STARLINK-4192 (52881 NORAD) Tracking and Keplerian Element Data

This shows tracking and keplerian element data for the satellite.

Feedback or suggestion? Click here.




ElementValue
Catalog52881
NameSTARLINK-4192
Epoch Orbit130
Epoch Day270.00001157
Epoch Year2022
RAAN269.0882
Inclination53.2172
Eccentricity0.0001834
Argument of Perigee44.3704
Mean Anonmoly115.9221
Mean Motion15.12275928
Decay Rate-0.01082153
L11 52881U 22062BD 22270.00001157 -.01082153 00000+0 -66820-1 0 9997
L22 52881 53.2172 269.0882 0001834 44.3704 115.9221 15.12275928 1306

Live tracking and technical data element details for STARLINK-4192 (NORAD 52881). STARLINK-4192 can be tracked NOW for your location showing map with azimuth and elevation plus other details from your city location.

Track the satellite on the map from your city or location and see movement details for azimuth, elevation, latitude, longitude, range, height, and movement on the map or in text.







IsCatalogInMostPopularTable: catalog: 52881, numindb: 7
Update: records affected: 1



GetName: 52881 STARLINK-4192

Hit Count: updated at: Thu, 06 Oct 2022 04:04:00 GMT